Regional Weather Roundup
Issued by NWS New Orleans/Baton Rouge, LA

Home | Current Version | Previous Version | Text Only | Print | Product List | Glossary Off
Versions: 1 2 3 4 5 6 7 8 9 10 11 12 13 14 15 16 17 18 19 20 21 22 23 24 25 26 27 28 29 30 31 32 33 34 35 36 37 38 39 40 41 42 43 44 45 46 47 48 49 50

994
ASUS44 KLIX 301701
RWRLIX
NEW ORLEANS REGIONAL WEATHER ROUNDUP
NATIONAL WEATHER SERVICE NEW ORLEANS LA
1200 PM CDT TUE SEP 30 2014

NOTE: "FAIR" INDICATES FEW OR NO CLOUDS BELOW 12,000 FEET WITH NO
      SIGNIFICANT WEATHER AND/OR OBSTRUCTIONS TO VISIBILITY.
      SKY/WX - SKY CONDITION AND SIGNIFICANT WEATHER.
      TMP - AIR TEMPERATURE.     DP    - DEWPOINT TEMPERATURE.
      RH  - RELATIVE HUMIDITY.   PRES  - PRESSURE.
      HI  - HEAT INDEX.          WCI   - WIND CHILL INDEX.

*  THESE STATIONS ARE NOT NWS OR FAA STATIONS AND ARE NOT UNDER
   NWS QUALITY CONTROL.

LAZ038-040-048-061>063-065>067-069-301800-
SOUTHEAST LOUISIANA

CITY           SKY/WX    TMP DP  RH WIND       PRES   REMARKS
N.O. AUDUBON     N/A     87  73  61 MISG        N/A
N.O. INTL ARPT MOSUNNY   85  72  65 NE8       29.90F
N.O. LAKEFRONT MOSUNNY   81  71  71 NE8       29.91S
N.O. DOWNTOWN*   N/A     82  70  65 E6        29.92R
SLIDELL        PTSUNNY   86  71  60 NE7       29.90F
BATON ROUGE    PTSUNNY   87  69  54 CALM      29.90F
BOOTHVILLE     SUNNY     84  75  74 NE7       29.90F
BELLE CHASSE   PTSUNNY   84  71  65 E7        29.90F
BOGALUSA*        N/A     85  68  56 SE3       29.93F
GALLIANO*      NOT AVBL
NEW ROADS*       N/A     85  71  61 SE3       29.91S
GONZALES*      PTSUNNY   85  73  66 NE3       29.90S
HAMMOND*       NOT AVBL
HOUMA*         MOSUNNY  N/A N/A N/A NE7       29.91
PORT FOURCHON* SUNNY     82  73  74 NE5       29.93S

$$

MSZ070-080>082-301800-
SOUTHERN MISSISSIPPI

CITY           SKY/WX    TMP DP  RH WIND       PRES   REMARKS
MCCOMB         MOSUNNY   85  67  54 E8        29.93S
GULFPORT       CLOUDY    82  72  71 SE10      29.91S
BILOXI         MOSUNNY   82  73  73 SE8       29.92S
PASCAGOULA     CLOUDY    78  70  76 NE6       29.93S
STENNIS ARPT*  PTSUNNY   84  68  58 E5        29.91S

$$

COASTAL OBSERVATIONS
LAKE AND NEARSHORE STATIONS

STATION/POSITION TIME  TEMP    WIND        PRES    WAVE
                       AIR SEA DIR/SP/G            HT/PER
                 (UTC) (F)     (DEG/KT/KT) (MB)    (FT/S)
PASCAGOULA       1600   80      70/  7/ 10 1012.7
WAVELAND YACHT   1600   78     140/  8/  9 1012.2
GRAND ISLE       1600   81 81   70/  5/  6 1013.3
SOUTHWEST PASS   1600   88 86  130/  2/  3 1012.8
NEW CANAL        1600   78 77   40/  8/  9 1013.2
SHELL BEACH      1600   80 75   50/  7/  8 1012.7

OFFSHORE STATIONS

STATION/POSITION TIME  TEMP    WIND        PRES    WAVE
                       AIR SEA DIR/SP/G            HT/PER
                 (UTC) (F)     (DEG/KT/KT) (MB)    (FT/S)
64 S DAUPHIN ISL 1618   80 82   70/ 10/ 12 1012.7    2/ 5

$$




USA.gov is the U.S. government's official web portal to all federal, state and local government web resources and services.